HAIYANG 3A

导读 | 星芒AI

HAIYANG 3A(HY-3A)是中国海洋水色系列卫星的首颗卫星,于2002年5月15日发射。该卫星主要用于海洋环境监测,搭载了多波段水色扫描仪、红外扫描仪和微波辐射计等仪器,可获取海洋水色、温度、悬浮物和叶绿素等关键参数。HY-3A 为中国海洋资源开发、环境保护和灾害预警提供了重要的遥感数据支持。

基本信息
目录编号:
58349
目录名称:
HAIYANG 3A
国际标识:
2023-176A
轨道中心:
EARTH
卫星名称:
HAIYANG 3A
卫星全名:
--
卫星状态:
在轨 (已飞行713 天)
发射日期:
2023-11-16 UTC
国别 :
中国 (CN)
星等 :
--
轨道信息
数据来源 国际轨道数据
星历时间: 2025-10-29T00:14:42+0800
16小时前
查看轨道信息
半长轴: 7156.073km
偏心率: 0.0009322
轨道倾角: 98.571°
近地点辐角 356.092°
升交点赤经 17.020°
平近点角 4.019°
近地点: 771.267km
远地点: 784.609km
周期: 100.409分钟
每日圈数: 14.341371
详细信息
使用方式:
暂无
2D轨道图
3D轨道图
轨道高度分析图
轨道倾角分析图
轨道综合分析图
查看轨道综合分析图